This demonstration page uses our WeatherBlox Daily Observations layout. Learn more.

Left ArrowRight Arrow

Hourly Observations for April 15, 2021

Temp ( °F °C ) Dew Point ( °F °C ) Humidity (%) Winds ( mph kmh ) Pressure ( in mb ) Visibility ( mi km ) Precip ( " mm )
12:15 am 00:15 Cloudy with Thunderstorms 59 15 56 13.3 90 90 S 6 9 29.87 1012 2 3 0.17 4.32
12:23 am 00:23 Cloudy with Thunderstorms 59 15 57 13.9 93 93 SE 7 11 29.85 1011 3 4 0.20 5.08
12:26 am 00:26 Cloudy with Rain 59 15 56 13.3 90 90 SE 7 11 29.85 1011 3 5 0.21 5.33
12:59 am 00:59 Cloudy with Rain 60 15.6 57 13.9 90 90 S 8 13 29.84 1011 3 5 0.28 7.11
1:59 am 01:59 Cloudy 60 15.6 58 14.4 93 93 SSE 7 11 29.79 1009 10 16 0.08 2.03
2:59 am 02:59 Cloudy 60 15.6 58 14.4 93 93 WNW 6 9 29.78 1008 9 14 0.00 0.00
3:06 am 03:06 Cloudy 60 15.6 57 13.9 90 90 WNW 8 13 29.78 1008 10 16 0.00 0.00
3:59 am 03:59 Cloudy with Mist and Fog 59 15 56 13.3 90 90 NNW 13 20 29.78 1008 5 8 0.00 0.00
4:59 am 04:59 Cloudy with Mist and Fog 59 15 56 13.3 90 90 N 5 7 29.75 1007 4 6 0.00 0.00
5:06 am 05:06 Cloudy with Mist and Fog 59 15 56 13.3 90 90 NE 6 9 29.74 1007 4 6 0.00 0.00
5:59 am 05:59 Cloudy 59 15 56 13.3 90 90 NW 7 11 29.76 1008 7 11 0.00 0.00
6:59 am 06:59 Cloudy with Mist and Fog 59 15 56 13.3 90 90 N 6 9 29.76 1008 4 6 0.00 0.00
7:13 am 07:13 Cloudy with Mist and Fog 58 14.4 56 13.3 93 93 N 9 15 29.77 1008 2 3 0.00 0.00
7:23 am 07:23 Cloudy with Mist and Fog 58 14.4 56 13.3 93 93 N 9 15 29.77 1008 3 4 0.00 0.00
7:35 am 07:35 Cloudy with Mist and Fog 58 14.4 56 13.3 93 93 NNW 9 15 29.77 1008 1 2 0.00 0.00
7:52 am 07:52 Cloudy 59 15 56 13.3 90 90 NNW 12 19 29.78 1008 7 11 0.00 0.00
7:59 am 07:59 Mostly Cloudy 59 15 56 13.3 90 90 NNW 7 11 29.77 1008 7 11 0.00 0.00
8:59 am 08:59 Cloudy 60 15.6 55 12.8 84 84 NNW 7 11 29.78 1008 9 14 0.00 0.00
9:04 am 09:04 Cloudy 60 15.6 55 12.8 84 84 N 7 11 29.78 1008 9 14 0.00 0.00
9:59 am 09:59 Mostly Cloudy 61 16.1 55 12.8 81 81 NNW 6 9 29.78 1009 10 16 0.00 0.00
10:59 am 10:59 Mostly Cloudy 63 17.2 54 12.2 73 73 VRB 5 7 29.77 1008 10 16 0.00 0.00
11:59 am 11:59 Mostly Cloudy 63 17.2 53 11.7 70 70 NNW 8 13 29.77 1008 10 16 0.00 0.00
12:25 pm 12:25 Cloudy 61 16.1 54 12.2 78 78 NW 12 19 29.77 1008 9 14 0.00 0.00
12:59 pm 12:59 Cloudy 61 16.1 54 12.2 78 78 NW 8 13 29.75 1008 9 14 0.00 0.00
1:59 pm 13:59 Cloudy 63 17.2 54 12.2 73 73 NNW 10 17 29.73 1007 10 16 0.00 0.00
2:59 pm 14:59 Mostly Cloudy 62 16.7 53 11.7 73 73 N 7 11 29.71 1006 10 16 0.00 0.00
3:59 pm 15:59 Mostly Cloudy 62 16.7 52 11.1 70 70 WNW 7 11 29.69 1006 10 16 0.00 0.00
4:59 pm 16:59 Mostly Cloudy 62 16.7 53 11.7 73 73 SW 5 7 29.69 1005 10 16 0.00 0.00
5:59 pm 17:59 Cloudy 63 17.2 49 9.4 60 60 W 7 11 29.70 1006 10 16 0.00 0.00
6:59 pm 18:59 Mostly Cloudy 62 16.7 49 9.4 62 62 WSW 6 9 29.69 1005 10 16 0.00 0.00
7:59 pm 19:59 Mostly Cloudy 57 13.9 51 10.6 81 81 SSW 6 9 29.70 1006 10 16 0.00 0.00
8:59 pm 20:59 Mostly Cloudy 60 15.6 52 11.1 75 75 NW 8 13 29.73 1007 10 16 0.00 0.00
9:59 pm 21:59 Mostly Cloudy 61 16.1 45 7.2 56 56 NW 8 13 29.75 1007 10 16 0.00 0.00
10:59 pm 22:59 Mostly Cloudy 57 13.9 38 3.3 49 49 NNW 20 31 29.79 1009 10 16 0.00 0.00
11:59 pm 23:59 Mostly Cloudy 56 13.3 36 2.2 47 47 NNW 20 31 29.81 1010 10 16 0.00 0.00

Powered by AerisWeather